STARLINK-38068

Last updated on Sun Aug 09 2026 00:02:04 GMT+0000 (Coordinated Universal Time)

1 69984U 26159K 26220.53946989 .00155719 00000+0 10252-2 0 9993 2 69984 97.2841 60.5353 0001568 53.4843 306.6567 15.75207895 5702
UTC large
Height (km)
Speed (km/s)
/
Latitude / Longitude
Inclination (degrees)
Orbital Period (minutes)
Azimuth
Elevation
Range (km)
Doppler Factor

Next 0 passes for location: London (51.5072 / 0.1276)

No passes found over London.
STARLINK-38068